Lid_Strength_Index
13 15 18 17 16 15 16 17 17 17 14 16 17 17 16 16 17 17 17 16 15 13 12 10 10 10 10 10 10 10 10 10 9 9 10 9 9 8 8 8 8 7 7 7
15 18 15 13 14 15 16 17 18 16 14 16 17 17 16 17 17 17 17 17 15 12 11 11 11 10 10 10 10 10 9 9 9 9 9 9 9 8 8 7 7 7 7 7
17 16 13 14 16 16 16 18 18 18 16 15 17 19 19 17 17 16 16 15 12 12 12 12 12 11 10 10 10 9 9 8 8 8 8 8 8 8 9 8 8 7 7 6
16 15 15 15 16 17 18 15 16 16 17 20 17 23 21 19 19 17 17 14 13 12 11 12 12 11 10 9 9 8 8 8 7 7 8 8 9 10 9 9 8 7 7 7
17 16 17 17 17 16 17 15 16 16 18 18 19 22 23 20 20 17 16 14 13 12 12 13 12 11 10 9 9 8 8 7 7 7 7 7 8 7 8 8 8 8 7 6
16 14 16 16 15 15 15 17 16 16 18 22 20 21 24 22 20 18 16 14 13 12 12 12 11 10 10 9 9 8 8 7 7 6 6 6 7 7 7 8 8 8 7 6
17 17 15 15 17 16 17 20 22 22 22 23 20 22 23 19 17 17 16 14 12 12 13 13 12 11 10 10 9 8 8 8 6 6 6 6 6 6 6 8 8 8 8 7
20 19 17 15 18 20 19 21 23 24 24 24 19 24 21 18 16 15 13 12 12 13 13 13 12 11 10 9 9 9 8 8 7 6 6 5 6 6 7 8 8 8 8 6
20 19 16 15 16 18 19 22 20 22 23 25 23 22 19 17 16 15 14 12 12 13 13 13 12 11 9 8 9 9 8 8 7 7 5 6 6 6 8 8 8 8 7 6
19 20 17 16 16 17 19 18 23 23 28 27 25 26 24 21 19 17 15 13 12 13 13 13 12 10 9 8 8 8 8 8 7 6 6 6 6 6 7 8 8 8 7 6
19 19 19 18 20 21 21 22 22 22 24 28 28 25 21 20 18 17 14 12 13 13 13 13 11 9 8 8 8 8 8 8 7 7 6 6 6 6 7 8 9 8 6 5
17 20 23 22 19 18 20 21 22 26 26 25 27 24 18 18 16 15 13 12 12 13 13 12 11 9 9 9 9 9 8 8 7 7 7 7 6 6 8 9 9 8 7 6
17 20 23 23 20 19 20 20 20 22 24 27 30 25 18 17 16 14 13 12 13 13 14 12 10 10 9 9 9 9 8 8 7 8 9 9 8 8 9 9 9 8 8 7
15 20 20 22 21 20 22 20 20 23 29 28 25 24 20 19 17 15 13 13 14 14 14 11 10 10 10 9 9 9 8 7 7 8 8 9 8 8 7 8 8 8 8 7
17 20 21 21 20 20 20 20 20 26 23 27 23 23 21 19 18 15 13 13 14 15 14 11 11 10 10 10 9 9 8 8 8 8 9 9 8 8 8 8 8 8 8 6
18 20 21 22 20 20 21 20 20 20 21 22 21 22 19 17 16 15 14 15 15 15 14 11 10 10 10 10 9 9 9 8 8 9 9 10 9 9 9 7 8 8 8 8
19 20 22 23 21 21 22 21 21 21 21 21 23 21 19 17 16 16 15 15 15 15 13 11 11 10 10 10 9 10 9 8 9 10 9 10 9 10 10 10 9 10 9 8
19 21 22 25 23 24 21 19 19 20 20 20 19 18 17 17 15 15 15 15 15 15 12 11 10 10 10 9 9 9 8 9 9 10 10 10 10 11 10 10 10 9 9 9
18 20 25 24 24 21 21 20 21 22 21 19 19 18 17 16 17 18 13 13 14 14 11 10 10 10 10 9 9 9 9 9 9 10 10 10 10 11 11 11 10 9 9 7
18 19 21 27 27 23 20 19 17 19 23 19 18 18 18 18 22 19 14 13 14 13 11 10 10 10 9 9 9 9 10 9 10 10 10 10 10 10 10 10 9 9 7 7
23 24 25 24 27 22 19 18 17 25 24 18 17 17 18 20 19 16 14 13 14 13 12 10 10 10 10 9 9 10 10 10 9 9 10 11 10 10 10 10 9 8 7 7
20 23 25 26 28 22 18 18 22 21 18 17 17 17 18 17 16 15 15 14 14 12 12 10 10 10 9 9 9 10 10 9 9 10 10 11 11 9 9 9 8 8 8 7
22 19 20 20 20 19 18 18 17 17 18 17 17 17 17 17 17 16 16 14 14 12 12 11 11 10 10 9 9 10 9 9 9 10 11 11 11 10 10 8 7 8 8 8
20 19 21 20 20 19 18 17 17 16 17 16 17 17 16 17 17 17 16 15 14 12 12 12 11 11 11 10 9 9 9 8 9 10 11 11 11 10 11 10 7 7 8 9
19 19 20 21 20 19 18 17 17 16 15 16 16 16 16 17 17 17 17 15 13 12 12 12 11 11 11 10 9 9 9 8 10 10 11 11 10 11 11 11 9 7 7 7
19 19 20 19 18 19 19 17 16 16 16 16 17 17 16 17 17 17 17 15 12 12 12 13 11 11 11 10 10 9 8 8 10 11 11 11 11 11 11 12 11 7 6 5